This is the latest recevied weather packets stored in our database for station/object K8RLH. If no packets are shown the sender has not sent any weather packets the latest 10 day(s).
| Time | Temp. | Humidity | Pressure | Rain* | Wind** | Luminosity | Snow |
|---|---|---|---|---|---|---|---|
| 1777683738 | 15.56° C | 74% | 1014.8 hPa | 0 mm | - | 0 W/m² | - |
| 1777683436 | 16.11° C | 74% | 1014.6 hPa | 0 mm | - | 0 W/m² | - |
| 1777683134 | 16.11° C | 74% | 1014.5 hPa | 0 mm | - | 0 W/m² | - |
| 1777682829 | 16.11° C | 73% | 1014.6 hPa | 0 mm | - | 0 W/m² | - |
| 1777682526 | 16.11° C | 71% | 1014.3 hPa | 0 mm | - | 0 W/m² | - |
| 1777682224 | 16.11° C | 72% | 1014.1 hPa | 0 mm | - | 0 W/m² | - |
| 1777681921 | 16.11° C | 70% | 1014 hPa | 0 mm | - | 0 W/m² | - |
| 1777681616 | 16.67° C | 68% | 1013.9 hPa | 0 mm | - | 0 W/m² | - |
| 1777681315 | 16.67° C | 68% | 1013.9 hPa | 0 mm | - | 0 W/m² | - |
| 1777681012 | 16.67° C | 67% | 1013.9 hPa | 0 mm | - | 1 W/m² | - |
| 1777680709 | 16.67° C | 65% | 1014.2 hPa | 0 mm | - | 1 W/m² | - |
| 1777680407 | 17.22° C | 65% | 1014 hPa | 0 mm | - | 2 W/m² | - |
| 1777680105 | 17.22° C | 64% | 1014 hPa | 0 mm | - | 4 W/m² | - |
| 1777679800 | 17.22° C | 64% | 1014.1 hPa | 0 mm | - | 6 W/m² | - |
| 1777679496 | 17.22° C | 63% | 1013.9 hPa | 0 mm | - | 5 W/m² | - |
| 1777679192 | 17.22° C | 63% | 1014 hPa | 0 mm | - | 6 W/m² | - |
| 1777678889 | 17.22° C | 62% | 1014 hPa | 0 mm | - | 10 W/m² | - |
| 1777678588 | 17.22° C | 62% | 1013.9 hPa | 0 mm | - | 13 W/m² | - |
| 1777678285 | 17.22° C | 62% | 1013.7 hPa | 0 mm | - | 18 W/m² | - |
| 1777677980 | 17.22° C | 62% | 1013.7 hPa | 0 mm | - | 20 W/m² | - |
| 1777677678 | 17.78° C | 63% | 1013.6 hPa | 0 mm | - | 20 W/m² | - |
| 1777677375 | 17.78° C | 62% | 1013.5 hPa | 0 mm | - | 24 W/m² | - |
| 1777677074 | 17.78° C | 60% | 1013.6 hPa | 0 mm | - | 28 W/m² | - |
| 1777676772 | 17.78° C | 60% | 1013.8 hPa | 0 mm | - | 32 W/m² | - |
| 1777676470 | 17.78° C | 58% | 1013.5 hPa | 0 mm | - | 38 W/m² | - |
* Rain latest hour (hover to see other rain measurements)
** Current wind speed in m/s (hover to see current wind gust speed)